Location: Unspecified
(22.6800°N, 112.2000°E)
Time: 00:48:04
(UTC+08:00)

Courier 1B Rocket - Pass Details

Date: 09 August 2021
Orbit: 920 x 1202 km, 28.3° (Epoch: 17 September)

Event Time Altitude Azimuth Distance (km) Brightness Sun altitude
Exits shadow 03:36:26 69° 109° (ESE) 1,046 5.1 -31.5°
Drops below altitude 10° 03:42:01 10° 109° (ESE) 2,666 7.7 -30.5°
Sets 03:44:34 0° 110° (ESE) 3,585 8.4 -30.0°
